Regional Weather Roundup
Issued by NWS

Home | Current Version | Previous Version | Graphics & Text | Print | Product List | Glossary On
Versions: 1 2 3 4 5 6 7 8 9 10 11 12 13 14 15 16 17 18 19 20 21 22 23 24 25 26 27 28 29 30 31 32 33 34 35 36 37 38 39 40 41 42 43 44 45 46 47 48 49 50
000
ASUS43 KMPX 021710
RWRMN
WEATHER ROUNDUP FOR MINNESOTA
NATIONAL WEATHER SERVICE TWIN CITIES/CHANHASSEN MN
1100 AM CST FRI DEC 02 2016


NOTE: "FAIR" INDICATES FEW OR NO CLOUDS BELOW 12,000 FEET WITH NO
SIGNIFICANT WEATHER AND/OR OBSTRUCTIONS TO VISIBILITY. N/A MEANS
CURRENT SKY AND/OR WEATHER CONDITIONS ARE NOT AVAILABLE.

MNZ060>063-068>070-021800-
   Twin Cities Metro

CITY           SKY/WX    TMP DP  RH WIND       PRES   REMARKS
TWIN CITIES    CLOUDY    33  23  66 NW8       30.23R WCI  26
ST PAUL        CLOUDY    33  24  69 NW10      30.24R WCI  25
CRYSTAL        CLOUDY    32  22  66 NW7       30.22R WCI  26
BLAINE         CLOUDY    34  27  75 NW8       30.22R WCI  27
LAKEVILLE      CLOUDY    30  23  74 W8        30.23R WCI  23
EDEN PRAIRIE   CLOUDY    33  23  66 VRB6      30.22R WCI  28
SOUTH ST PAUL  CLOUDY    33  23  67 W7        30.23S WCI  27
LAKE ELMO      CLOUDY    32  27  80 NW7       30.23R WCI  26
$$
MNZ001>005-007-008-013>017-022>024-027-028-021800-
   Northwest Minnesota

CITY           SKY/WX    TMP DP  RH WIND       PRES   REMARKS
BEMIDJI        CLOUDY    23  19  86 W8        30.21F WCI  14
HALLOCK        MOSUNNY   28  25  86 NW7       30.25S WCI  21
ROSEAU         PTSUNNY   27  21  80 W7        30.23S WCI  19
WARROAD        CLOUDY    25  19  80 NW8       30.23S WCI  16
THIEF RVR FALL CLOUDY    27  22  81 NW9       30.25R WCI  18
CROOKSTON      CLOUDY    28  23  80 N10       30.26S WCI  19
FOSSTON        CLOUDY    23  18  80 W7        30.24S WCI  15
DETROIT LAKES  CLOUDY    27  23  86 NW9       30.24R WCI  17
MOORHEAD       CLOUDY    27  21  80 N9        30.28S WCI  17
PARK RAPIDS    CLOUDY    24  18  77 N3        30.21S
$$
MNZ006-009>011-018-025>026-021800-
   North Central Minnesota

CITY           SKY/WX    TMP DP  RH WIND       PRES   REMARKS
BAUDETTE       CLOUDY    23  21  92 W8        30.21R WCI  14
FLAG ISLAND    CLOUDY    21  19  93 NW7       30.21S WCI  13
INTL FALLS     CLOUDY    26  22  84 W6        30.19R WCI  19
WASKISH        CLOUDY    21  19  93 CALM      30.22S
BIG FORK       CLOUDY    25  21  86 CALM      30.20S
LONGVILLE      CLOUDY    25  21  86 W6        30.21S WCI  18
GRAND RAPIDS   CLOUDY    27  23  85 NW7       30.21R WCI  19
CRANE LAKE     CLOUDY    25  21  86 CALM      30.21S
ORR            CLOUDY    25  21  86 CALM      30.16S
COOK           CLOUDY    25  21  86 CALM      30.18S
$$
MNZ012-019>021-037-021800-
   Northeast Minnesota

CITY           SKY/WX    TMP DP  RH WIND       PRES   REMARKS
DULUTH         CLOUDY    27  22  81 N9        30.16R WCI  18
ELY            CLOUDY    23  21  93 W5        30.17R WCI  17
HIBBING        CLOUDY    25  21  85 NW8       30.18R WCI  16
EVELETH        CLOUDY    26  21  83 NW8       30.18S WCI  17
DULUTH HARBOR  CLOUDY    30  25  80 W12       30.21S WCI  21
TWO HARBORS    CLOUDY    30  25  80 N7        30.15S WCI  23
SILVER BAY     CLOUDY    30  25  80 N6        30.15R WCI  24
GRAND MARAIS     N/A     32  23  69 CALM      30.14R
G MARAIS ARPRT CLOUDY    25  19  80 NW12G17   30.09S WCI  14
$$
MNZ029>031-032-039>041-046>048-054>057-064-021800-
   West Central Minnesota

CITY           SKY/WX    TMP DP  RH WIND       PRES   REMARKS
FERGUS FALLS   CLOUDY    27  21  80 NW7       30.30R WCI  19
WHEATON        CLOUDY   N/A N/A N/A N9        30.29R
MORRIS         CLOUDY    28  21  74 NW7       30.25R WCI  21
ALEXANDRIA     CLOUDY    26  21  81 NW7       30.23S WCI  18
ELBOW LAKE     CLOUDY    26  21  82 N8        30.26R WCI  17
WADENA         CLOUDY    25  19  80 NW8       30.22S WCI  16
GLENWOOD       CLOUDY    27  21  80 NW7       30.23S WCI  19
APPLETON       CLOUDY    30  21  69 N7        30.27R WCI  23
BENSON         CLOUDY    28  19  69 N3        30.26R
ORTONVILLE     CLOUDY    28  21  74 CALM      30.27R
MADISON        CLOUDY    30  25  80 W6        30.27S WCI  24
WILLMAR        CLOUDY    28  21  74 N6        30.26S WCI  22
$$
MNZ033>034-036-042>043-049>051-058-059-021800-
   Central Minnesota

CITY           SKY/WX    TMP DP  RH WIND       PRES   REMARKS
ST CLOUD       CLOUDY    29  23  78 N7        30.23R WCI  22
PAYNESVILLE    CLOUDY    29  24  79 W7        30.24R WCI  22
AITKIN         CLOUDY    28  21  74 W3        30.20R
PINE RIVER     CLOUDY    25  19  80 W5        30.24S WCI  19
BRAINERD       CLOUDY    26  21  81 W9        30.22S WCI  17
STAPLES        CLOUDY    25  21  86 N8        30.22S WCI  16
LONG PRAIRIE   CLOUDY    27  21  80 NW6       30.23S WCI  20
LITTLE FALLS   CLOUDY    28  21  74 N6        30.23S WCI  22
LITCHFIELD     CLOUDY    30  25  80 W5        30.24R WCI  25
BUFFALO        CLOUDY    31  24  74 W6        30.24S WCI  25
MAPLE LAKE     CLOUDY    32  26  80 NW7       30.24R WCI  26
$$
MNZ037-044-045-052-053-021800-
   East Central Minnesota

CITY           SKY/WX    TMP DP  RH WIND       PRES   REMARKS
PRINCETON      CLOUDY    30  25  80 NW6       30.23S WCI  24
MORA           CLOUDY    30  23  74 NW8       30.23R WCI  23
CAMBRIDGE      CLOUDY    32  21  64 NW5       30.21R WCI  27
RUSH CITY      CLOUDY    30  23  74 NW6       30.22S WCI  24
MOOSE LAKE     CLOUDY    30  23  74 NW5       30.18S WCI  25
HINCKLEY       CLOUDY    30  25  80 N6        30.22R WCI  24
CLOQUET        CLOUDY    27  21  80 W8        30.18R WCI  18
MCGREGOR       CLOUDY    28  25  86 NW6       30.20S WCI  22
$$
MNZ071>073-080-081-089-090-097-098-021800-
   Southwest Minnesota

CITY           SKY/WX    TMP DP  RH WIND       PRES   REMARKS
MONTEVIDEO     CLOUDY    28  27  93 N8        30.28S WCI  20
GRANITE FALLS  CLOUDY    31  24  77 NW9       30.28R WCI  22
CANBY          CLOUDY    30  24  79 CALM      30.27S
MARSHALL       CLOUDY    29  24  82 N9        30.27R WCI  20
REDWOOD FALLS  CLOUDY    30  20  66 N9        30.26R WCI  22
OLIVIA         CLOUDY    30  25  80 NW7       30.25R WCI  23
PIPESTONE      CLOUDY    30  23  74 N6        30.23S WCI  24
WINDOM         CLOUDY    30  27  86 CALM      30.24R
WORTHINGTON    CLOUDY    30  25  80 NW13      30.25R WCI  20
JACKSON        CLOUDY    30  23  74 NW7       30.24S WCI  23
TRACY          CLOUDY    30  25  80 NW8       30.26R WCI  23
SLAYTON        CLOUDY    28  23  81 NW8       30.25R WCI  20
$$
MNZ065>067-074>077-082>085-091>093-021800-
   South Central Minnesota

CITY           SKY/WX    TMP DP  RH WIND       PRES   REMARKS
MANKATO        CLOUDY    30  24  78 NW12      30.24  WCI  20
NEW ULM        CLOUDY    28  21  74 NW13      30.25S WCI  18
ST JAMES       CLOUDY    30  25  80 NW8       30.26R WCI  23
FAIRMONT       CLOUDY    31  25  78 NW10      30.25R WCI  22
GLENCOE        CLOUDY    32  26  79 W9        30.24S WCI  24
FARIBAULT      CLOUDY    30  23  74 W7        30.24R WCI  23
OWATONNA       CLOUDY    30  23  74 NW9       30.22S WCI  22
WASECA         CLOUDY    32  27  80 NW9       30.24S WCI  24
ALBERT LEA     CLOUDY    34  27  75 NW6       30.23R WCI  29
$$
MNZ078>079-086>088-094>096-021800-
   Southeast Minnesota

CITY           SKY/WX    TMP DP  RH WIND       PRES   REMARKS
ROCHESTER      CLOUDY    30  23  75 NW12      30.21R WCI  20
RED WING       CLOUDY    34  21  60 W7        30.22S WCI  28
STANTON        CLOUDY    33  24  70 W7        30.22S WCI  26
DODGE CENTER   CLOUDY    28  23  80 NW9       30.21S WCI  20
WINONA         CLOUDY    34  27  75 N9        30.23R WCI  26
AUSTIN         CLOUDY    30  23  74 N8        30.22R WCI  23
PRESTON        CLOUDY    29  22  73 NW10      30.21S WCI  20
$$
ABBREVIATIONS USED IN REMARKS
   TC - TEMPERATURES IN CELSIUS
  WCI - WIND CHILL INDEX
   HX - HEAT INDEX
  VSB - VISIBILITY
$$




USA.gov is the U.S. government's official web portal to all federal, state and local government web resources and services.